Trinidad, CO

10:06 PM MST on February 18, 2018 (GMT -0700)
Stokes

Weather History for KTAD - October, 2012

Change the Weather History Date:

Tuesday, October 2, 2012

  Actual Average Record
Temperature  
Mean Temperature 62 °F 58 °F  
Max Temperature 82 °F 73 °F 89 °F (1954)
Min Temperature 42 °F 42 °F 30 °F (1999)
Degree Days  
Heating Degree Days 3 8  
Month to date heating degree days 11 16  
Since 1 July heating degree days 87 126  
Cooling Degree Days 0 0  
Month to date cooling degree days 0 0  
Year to date cooling degree days 1175 716  
Growing Degree Days 12 (Base 50)    
Moisture  
Dew Point 29 °F    
Average Humidity 38    
Maximum Humidity 65    
Minimum Humidity 11    
Precipitation  
Precipitation 0.00 in 0.03 in 0.18 in (1998)
Month to date precipitation T 0.06  
Year to date precipitation 11.76  
Sea Level Pressure  
Sea Level Pressure 29.91 in    
Wind  
Wind Speed 9 mph (West)    
Max Wind Speed 21 mph    
Max Gust Speed 24 mph    
Visibility 10 miles    
Events      
T = Trace of Precipitation, MM = Missing Value Source: NWS Daily Summary

Daily Weather History Graph

Daily Weather History Graph

Search for Another Location

Airport or City:

Trip Planner

Search our weather history database for the weather conditions in past years. The results will help you decide how hot, cold, wet, or windy it might be!

Date:

Astronomy

Oct. 02, 2012 Rise Set
Actual Time 6:54 AM MDT 6:38 PM MDT
Civil Twilight 6:28 AM MDT 7:04 PM MDT
Nautical Twilight 5:57 AM MDT 7:34 PM MDT
Astronomical Twilight 5:27 AM MDT 8:04 PM MDT
Moon 7:57 PM MDT (10/2) 9:19 AM MDT (10/2)
Length of Visible Light 12h 36m
Length of Day
11h 44m
Waning Gibbous, 94% of the Moon is Illuminated
Oct 2
Waning Gibbous
Oct 8
Last Quarter
Oct 15
New
Oct 21
First Quarter
Oct 29
Full

Hourly Weather History & Observations

Time (MDT) Temp. Windchill Dew Point Humidity Pressure Visibility Wind Dir Wind Speed Gust Speed Precip Events Conditions
12:54 AM 44.1 °F 39.0 °F 33.1 °F 65% 30.10 in 10.0 mi West 9.2 mph - N/A   Clear
1:54 AM 45.0 °F 39.7 °F 33.1 °F 63% 30.09 in 10.0 mi WSW 10.4 mph - N/A   Clear
2:54 AM 46.0 °F 39.9 °F 33.1 °F 61% 30.06 in 10.0 mi WSW 13.8 mph - N/A   Clear
3:54 AM 45.0 °F 40.1 °F 33.1 °F 63% 30.04 in 10.0 mi West 9.2 mph - N/A   Clear
4:54 AM 44.1 °F 38.1 °F 33.1 °F 65% 30.03 in 10.0 mi WSW 11.5 mph - N/A   Clear
6:54 AM 48.0 °F - 33.1 °F 56% 30.01 in 10.0 mi WSW 16.1 mph - N/A   Clear
7:54 AM 51.1 °F - 34.0 °F 52% 30.00 in 10.0 mi SW 16.1 mph - N/A   Clear
8:54 AM 57.9 °F - 35.1 °F 42% 29.97 in 10.0 mi WSW 18.4 mph - N/A   Clear
9:54 AM 66.0 °F - 35.1 °F 32% 29.94 in 10.0 mi WSW 11.5 mph - N/A   Clear
10:54 AM 72.0 °F - 32.0 °F 23% 29.92 in 10.0 mi West 4.6 mph - N/A   Clear
11:54 AM 75.0 °F - 28.9 °F 18% 29.88 in 10.0 mi Calm Calm - N/A   Clear
12:54 PM 78.1 °F - 21.0 °F 12% 29.85 in 10.0 mi ENE 4.6 mph - N/A   Clear
1:54 PM 81.0 °F - 21.0 °F 11% 29.80 in 10.0 mi North 10.4 mph - N/A   Clear
2:54 PM 81.0 °F - 21.0 °F 11% 29.78 in 10.0 mi ENE 5.8 mph - N/A   Clear
3:54 PM 81.0 °F - 23.0 °F 12% 29.78 in 10.0 mi NE 8.1 mph 18.4 mph N/A   Clear
4:54 PM 79.0 °F - 24.1 °F 13% 29.79 in 10.0 mi East 9.2 mph - N/A   Clear
6:54 PM 70.0 °F - 26.1 °F 19% 29.82 in 10.0 mi ESE 8.1 mph - N/A   Clear
7:54 PM 62.1 °F - 26.1 °F 25% 29.85 in 10.0 mi South 5.8 mph - N/A   Clear
8:54 PM 59.0 °F - 26.1 °F 28% 29.84 in 10.0 mi NW 4.6 mph - N/A   Clear
9:54 PM 54.0 °F - 28.0 °F 37% 29.83 in 10.0 mi West 4.6 mph - N/A   Clear
10:54 PM 50.0 °F - 28.9 °F 44% 29.82 in 10.0 mi WNW 8.1 mph - N/A   Clear
11:54 PM 51.1 °F - 28.9 °F 43% 29.80 in 10.0 mi WNW 8.1 mph - N/A   Clear